Flag for Belgium Weather past 2 weeks in Ghent, Belgium

Now
57 °F

Cool.


Feels Like: 57 °F
Forecast: 49 / 60 °F
Wind: 5 mph from West

Location: Munte

Current Time: Apr 25, 2015 at 1:54:01 PM

Latest Report: Apr 25, 2015 at 1:00 PM


Visibility: 9 mi

Pressure: 29.77 "Hg

Humidity: 82%

Dew point: 52 °F

Location of GhentLocation

Historic Weather in Ghent — Graph

°F

Ghent temperature yesterday

Maximum temperature yesterday: 72 °F (at 4:00 PM)
Minimum temperature yesterday: 40 °F (at 6:00 AM)
Average temperature yesterday: 56 °F

Past Weeks' High & Low Weather Summary

 TemperatureHumidityPressure
High75 °F (Apr 15, 4:00 PM)99% (Apr 22, 8:00 AM)30.52 "Hg (Apr 22, 8:00 AM)
Low36 °F (Apr 18, 7:00 AM)32% (Apr 15, 6:00 PM)29.77 "Hg (Apr 25, 10:00 AM)
Average53 °F68%30.20 "Hg
* Reported Apr 10 12:00 Noon — Apr 25 12:00 Noon, Ghent, Weather by CustomWeather, © 2015

Note: Actual official high and low records may vary slightly from our data, if they occured in-between our weather recording intervals... More about our weather records

Advertising

Ghent weather history for previous 24 hours

 ConditionsComfort  
Time TempWeatherWind HumidityBarometerVisibility
12:00 PM
Sat, Apr 25
55 °FCool.2 mph95%29.77 "Hg4 mi
11:00 AM56 °FLight rain. Cloudy.5 mph93%29.77 "Hg4 mi
10:00 AM54 °FCool.5 mph94%29.77 "Hg3 mi
9:00 AM54 °FCool.5 mph92%29.77 "Hg4 mi
8:00 AM52 °FFog.3 mph97%29.78 "Hg2 mi
7:00 AM51 °FFog.3 mph97%29.77 "Hg2 mi
6:00 AM51 °FDrizzle. Overcast.2 mph95%29.78 "Hg2 mi
5:00 AM51 °FDrizzle. Overcast.2 mph94%29.79 "Hg3 mi
4:00 AM51 °FDrizzle. Overcast.2 mph90%29.80 "Hg6 mi
3:00 AM52 °FDrizzle. Overcast.3 mph80%29.82 "Hg8 mi
2:00 AM53 °FCool.3 mph77%29.83 "Hg12 mi
1:00 AM52 °FCool.3 mph79%29.84 "Hg9 mi
12:00 AM52 °FCool.2 mph79%29.85 "Hg9 mi
11:00 PM
Fri, Apr 24
53 °FCool.2 mph77%29.86 "Hg11 mi
10:00 PM54 °FCool.5 mph75%29.87 "Hg9 mi
9:00 PM56 °FCool.3 mph75%29.85 "Hg6 mi
8:00 PM61 °FCool.5 mph66%29.84 "Hg6 mi
7:00 PM65 °FMild.3 mph58%29.84 "Hg7 mi
6:00 PM68 °FMild.5 mph54%29.84 "Hg6 mi
5:00 PM71 °FMild.5 mph43%29.83 "Hg11 mi
4:00 PM72 °FMild.5 mph38%29.85 "Hg12 mi
3:00 PM71 °FMild.5 mph41%29.87 "Hg8 mi
2:00 PM69 °FMild.5 mph42%29.88 "Hg8 mi
1:00 PM67 °FPartly sunny.5 mph46%29.90 "Hg7 mi
Weather by CustomWeather, © 2015

See weather overviewHow to use our weather pages